User: anonymous   Login
Location: Unspecified
(0.0000°N, 0.0000°E)
Time: 02:52:41
(UTC+00:00)
Language:

N. Korean satellite - Orbit

View from above orbital plane
View from above orbital plane
View from above satellite
View from above satellite

Ground track
Ground track

The orbit data is extracted from the following two-line orbital elements,

1 39026U 12072A   17051.09766083  .00002032  00000-0  82727-4 0  9992
2 39026  97.2319  72.9364 0039770 229.8906 129.8844 15.24926013232147
Epoch (UTC): 20 February 2017 02:20:37
Eccentricity: 0.0039770
inclination: 97.2319°
perigee height: 463 km
apogee height: 518 km
right ascension of ascending node: 72.9364°
argument of perigee: 229.8906°
revolutions per day: 15.24926013
mean anomaly at epoch: 129.8844°
orbit number at epoch: 23214

The dashed part of the orbit path shows where the satellite is in the earth's shadow,  

DLR